Regional Weather Roundup
Issued by NWS

Home | Current Version | Previous Version | Text Only | Print | Product List | Glossary On
Versions: 1 2 3 4 5 6 7 8 9 10 11 12 13 14 15 16 17 18 19 20 21 22 23 24 25 26 27 28 29 30 31 32 33 34 35 36 37 38 39 40 41 42 43 44 45 46 47 48 49 50
000
ASUS43 KLSX 251210
RWRMO

WEATHER SUMMARY FOR MISSOURI
NATIONAL WEATHER SERVICE SPRINGFIELD MO
700 AM CDT SAT MAR 25 2017

NOTE: "FAIR" INDICATES FEW OR NO CLOUDS BELOW 12,000 FEET WITH NO
       SIGNIFICANT WEATHER AND/OR OBSTRUCTIONS TO VISIBILITY.
       CURRENT SKY AND/OR WEATHER CONDITIONS ARE NOT AVAILABLE FOR
       CHILLICOTHE AND FARMINGTON.

MOZ001>031-035>038-043-044-053-054-251300-
...NORTHERN AND WESTERN MISSOURI...

CITY           SKY/WX    TMP DP  RH WIND       PRES   REMARKS
KANSAS CTY INT CLOUDY    53  52  96 NW5       29.79R
6HR MIN TEMP:  52; 6HR MAX TEMP:  57; 6HR PCP:  0.25;

KANSAS C DTWN  MOCLDY    54  50  86 N3        29.78R
6HR MIN TEMP:  54; 6HR MAX TEMP:  59; 6HR PCP: TRACE;

LEE`S SUMMIT   CLOUDY    51  49  92 E5        29.77R
6HR MIN TEMP:  50; 6HR MAX TEMP:  58;

ST JOSEPH      LGT RAIN  49  49 100 N13       29.82S FOG
6HR MIN TEMP:  48; 6HR MAX TEMP:  49; 6HR PCP:  0.14;

CHILLICOTHE      N/A     56  54  93 NE5       29.80R
6HR MIN TEMP:  53; 6HR MAX TEMP:  58; 6HR PCP:  0.01;

KIRKSVILLE     LGT RAIN  55  55 100 NE5       29.79F FOG
6HR MIN TEMP:  55; 6HR MAX TEMP:  56; 6HR PCP:  0.24;


$$
MOZ066>068-077>081-088>096-101>105-251300-
...SOUTHWEST MISSOURI...

CITY           SKY/WX    TMP DP  RH WIND       PRES   REMARKS
SPRINGFIELD    CLOUDY    53  50  89 SE13      29.76R
6HR MIN TEMP:  52; 6HR MAX TEMP:  55;

JOPLIN         CLOUDY    52  52 100 W12       29.77R
6HR MIN TEMP:  52; 6HR MAX TEMP:  59; 6HR PCP:  0.11;

BRANSON        CLOUDY    50  50 100 E6        29.78S FOG

$$
MOZ032>034-039>042-045>050-055>058-069>072-251300-
...CENTRAL MISSOURI...

CITY           SKY/WX    TMP DP  RH WIND       PRES   REMARKS
COLUMBIA       PTCLDY    53  53 100 SE6       29.79S
6HR MIN TEMP:  53; 6HR MAX TEMP:  56; 6HR PCP: TRACE;

JEFFERSON CITY PTCLDY    54  51  90 SE6       29.79S
6HR MIN TEMP:  54; 6HR MAX TEMP:  59;

ROLLA          CLOUDY    52  50  93 SE14      29.79S
6HR MIN TEMP:  52; 6HR MAX TEMP:  54; 6HR PCP:  0.02;

SEDALIA        CLEAR     50  48  93 SE6       29.78R
6HR MIN TEMP:  49; 6HR MAX TEMP:  58; 6HR PCP: TRACE;

WHITEMAN AFB   CLEAR     46  46 100 E3        29.76R
WARRENSBURG    CLOUDY    50  46  87 E3        29.78R
OSAGE BEACH    CLOUDY   N/A N/A N/A S7        29.79R

$$
MOZ051-052-059>065-251300-
...EAST CENTRAL MISSOURI...

CITY           SKY/WX    TMP DP  RH WIND       PRES   REMARKS
ST LOUIS INTL  CLOUDY    58  53  84 S12       29.84R
6HR MIN TEMP:  58; 6HR MAX TEMP:  65; 6HR PCP:  0.61;

SPIRIT OF STL  MOCLDY    56  54  93 VRB5      29.83R
6HR MIN TEMP:  56; 6HR MAX TEMP:  59; 6HR PCP:  0.34;

ST CHARLES     PTCLDY    57  56  96 S9        29.83R
6HR MIN TEMP:  57; 6HR MAX TEMP:  63; 6HR PCP:  0.47;


$$
MOZ072>076-082>087-097>100-106>115-251300-
...SOUTH CENTRAL AND SOUTHEAST MISSOURI...

CITY           SKY/WX    TMP DP  RH WIND       PRES   REMARKS
CAPE GIRARDEAU LGT RAIN  55  52  89 SE16      29.92F
6HR MIN TEMP:  55; 6HR MAX TEMP:  66; 6HR PCP:  0.18;

FARMINGTON     CLOUDY    54  52  94 S12       29.88S
6HR MIN TEMP:  53; 6HR MAX TEMP:  57; 6HR PCP:  0.64;

POPLAR BLUFF   CLOUDY    56  54  93 SE15      29.90R
6HR MIN TEMP:  55; 6HR MAX TEMP:  68; 6HR PCP:  0.88;

WEST PLAINS    CLOUDY    54  52  93 SE12      29.82F
6HR MIN TEMP:  53; 6HR MAX TEMP:  54; 6HR PCP:  0.09;


$$



USA.gov is the U.S. government's official web portal to all federal, state and local government web resources and services.